TimeCST,TemperatureF,Dew PointF,Humidity,Sea Level PressureIn,VisibilityMPH,Wind Direction,Wind SpeedMPH,Gust SpeedMPH,PrecipitationIn,Events,Conditions,WindDirDegrees,DateUTC
12:01 AM,12.2,8.6,85,29.99,10.0,SW,6.9,-,N/A,,Clear,230,2013-01-04 06:01:00
12:22 AM,12.2,8.6,85,29.98,10.0,SW,9.2,-,N/A,,Clear,230,2013-01-04 06:22:00
12:42 AM,12.2,8.6,85,29.97,10.0,WSW,6.9,-,N/A,,Clear,240,2013-01-04 06:42:00
1:01 AM,12.2,8.6,85,29.97,10.0,WSW,6.9,-,N/A,,Clear,240,2013-01-04 07:01:00
1:22 AM,14.0,10.4,86,29.97,10.0,WSW,5.8,-,N/A,,Clear,240,2013-01-04 07:22:00
1:41 AM,14.0,10.4,86,29.96,10.0,WSW,5.8,-,N/A,,Clear,240,2013-01-04 07:41:00
2:02 AM,14.0,10.4,86,29.96,10.0,WSW,4.6,-,N/A,,Clear,240,2013-01-04 08:02:00
2:41 AM,14.0,10.4,86,29.97,10.0,WSW,5.8,-,N/A,,Clear,240,2013-01-04 08:41:00
3:02 AM,14.0,10.4,86,29.97,10.0,SW,4.6,-,N/A,,Clear,230,2013-01-04 09:02:00
3:21 AM,12.2,8.6,85,29.97,10.0,SW,3.5,-,N/A,,Clear,220,2013-01-04 09:21:00
3:41 AM,12.2,8.6,85,29.97,10.0,SW,3.5,-,N/A,,Clear,230,2013-01-04 09:41:00
4:02 AM,12.2,8.6,85,29.97,10.0,SW,3.5,-,N/A,,Clear,220,2013-01-04 10:02:00
4:21 AM,12.2,8.6,85,29.97,10.0,Calm,Calm,-,N/A,,Clear,0,2013-01-04 10:21:00
4:42 AM,12.2,8.6,85,29.97,10.0,SSW,3.5,-,N/A,,Clear,210,2013-01-04 10:42:00
5:01 AM,12.2,8.6,85,29.96,10.0,SSW,5.8,-,N/A,,Clear,210,2013-01-04 11:01:00
5:22 AM,12.2,8.6,85,29.96,10.0,SSW,4.6,-,N/A,,Clear,210,2013-01-04 11:22:00
5:41 AM,12.2,8.6,85,29.96,10.0,WSW,3.5,-,N/A,,Clear,250,2013-01-04 11:41:00
6:22 AM,12.2,8.6,85,29.97,10.0,Calm,Calm,-,N/A,,Clear,0,2013-01-04 12:22:00
6:41 AM,12.2,8.6,85,29.97,10.0,Calm,Calm,-,N/A,,Clear,0,2013-01-04 12:41:00
7:21 AM,8.6,5.0,85,29.98,10.0,Calm,Calm,-,N/A,,Clear,0,2013-01-04 13:21:00
7:42 AM,6.8,3.2,85,29.98,10.0,Calm,Calm,-,N/A,,Clear,0,2013-01-04 13:42:00
8:01 AM,5.0,3.2,92,29.99,10.0,Calm,Calm,-,N/A,,Clear,0,2013-01-04 14:01:00
8:21 AM,6.8,3.2,85,30.00,10.0,Calm,Calm,-,N/A,,Clear,0,2013-01-04 14:21:00
8:41 AM,6.8,3.2,85,30.01,10.0,Calm,Calm,-,N/A,,Clear,0,2013-01-04 14:41:00
9:01 AM,8.6,5.0,85,30.01,10.0,WSW,3.5,-,N/A,,Clear,250,2013-01-04 15:01:00
9:22 AM,14.0,10.4,86,30.02,10.0,WSW,3.5,-,N/A,,Clear,240,2013-01-04 15:22:00
9:41 AM,17.6,12.2,79,30.02,10.0,WSW,3.5,-,N/A,,Clear,250,2013-01-04 15:41:00
10:02 AM,19.4,12.2,74,30.03,10.0,WSW,3.5,-,N/A,,Clear,240,2013-01-04 16:02:00
10:21 AM,19.4,12.2,74,30.04,10.0,WSW,4.6,-,N/A,,Clear,240,2013-01-04 16:21:00
10:41 AM,21.2,12.2,68,30.04,10.0,WSW,3.5,-,N/A,,Clear,240,2013-01-04 16:41:00
11:02 AM,23.0,14.0,68,30.04,10.0,SW,3.5,-,N/A,,Clear,220,2013-01-04 17:02:00
11:21 AM,24.8,14.0,64,30.05,10.0,WSW,3.5,-,N/A,,Clear,240,2013-01-04 17:21:00
11:42 AM,26.6,17.6,69,30.04,10.0,Calm,Calm,-,N/A,,Clear,0,2013-01-04 17:42:00
12:01 PM,26.6,15.8,64,30.05,10.0,SSW,4.6,-,N/A,,Clear,200,2013-01-04 18:01:00
12:21 PM,26.6,15.8,64,30.05,10.0,South,4.6,-,N/A,,Clear,190,2013-01-04 18:21:00
12:42 PM,28.4,15.8,59,30.04,10.0,South,3.5,-,N/A,,Clear,170,2013-01-04 18:42:00
1:01 PM,30.2,17.6,60,30.04,10.0,South,3.5,-,N/A,,Clear,190,2013-01-04 19:01:00
1:22 PM,30.2,17.6,60,30.04,10.0,South,4.6,-,N/A,,Clear,190,2013-01-04 19:22:00
1:41 PM,30.2,17.6,60,30.04,10.0,South,5.8,-,N/A,,Clear,190,2013-01-04 19:41:00
2:02 PM,30.2,17.6,60,30.04,10.0,South,4.6,-,N/A,,Clear,180,2013-01-04 20:02:00
2:22 PM,32.0,17.6,55,30.04,10.0,South,4.6,-,N/A,,Clear,190,2013-01-04 20:22:00
2:41 PM,30.2,17.6,60,30.04,10.0,SSW,6.9,-,N/A,,Clear,200,2013-01-04 20:41:00
3:02 PM,30.2,17.6,60,30.05,10.0,SSW,5.8,-,N/A,,Clear,210,2013-01-04 21:02:00
3:21 PM,28.4,17.6,64,30.06,10.0,SW,5.8,-,N/A,,Clear,220,2013-01-04 21:21:00
3:41 PM,28.4,15.8,59,30.07,10.0,SW,5.8,-,N/A,,Clear,230,2013-01-04 21:41:00
4:01 PM,26.6,15.8,64,30.07,10.0,SW,4.6,-,N/A,,Clear,230,2013-01-04 22:01:00
4:21 PM,26.6,15.8,64,30.08,10.0,SW,3.5,-,N/A,,Clear,220,2013-01-04 22:21:00
4:42 PM,26.6,15.8,64,30.08,10.0,SW,3.5,-,N/A,,Clear,220,2013-01-04 22:42:00
5:01 PM,24.8,15.8,69,30.09,10.0,Calm,Calm,-,N/A,,Clear,0,2013-01-04 23:01:00
5:41 PM,23.0,14.0,68,30.10,10.0,SW,3.5,-,N/A,,Clear,220,2013-01-04 23:41:00
6:01 PM,21.2,14.0,74,30.10,10.0,SW,3.5,-,N/A,,Clear,220,2013-01-05 00:01:00
6:21 PM,19.4,12.2,74,30.10,10.0,Calm,Calm,-,N/A,,Clear,0,2013-01-05 00:21:00
6:41 PM,17.6,12.2,79,30.10,10.0,Calm,Calm,-,N/A,,Clear,0,2013-01-05 00:41:00
7:02 PM,14.0,10.4,86,30.10,10.0,Calm,Calm,-,N/A,,Clear,0,2013-01-05 01:02:00
7:21 PM,14.0,10.4,86,30.10,10.0,Calm,Calm,-,N/A,,Clear,0,2013-01-05 01:21:00
7:42 PM,12.2,8.6,85,30.09,10.0,Calm,Calm,-,N/A,,Clear,0,2013-01-05 01:42:00
8:02 PM,12.2,8.6,85,30.09,10.0,Calm,Calm,-,N/A,,Clear,0,2013-01-05 02:02:00
8:21 PM,12.2,8.6,85,30.09,10.0,Calm,Calm,-,N/A,,Clear,0,2013-01-05 02:21:00
8:42 PM,10.4,5.0,79,30.09,10.0,Calm,Calm,-,N/A,,Clear,0,2013-01-05 02:42:00
9:01 PM,8.6,5.0,85,30.09,10.0,Calm,Calm,-,N/A,,Clear,0,2013-01-05 03:01:00
9:21 PM,8.6,3.2,79,30.09,10.0,Calm,Calm,-,N/A,,Clear,0,2013-01-05 03:21:00
9:41 PM,8.6,3.2,79,30.10,10.0,Calm,Calm,-,N/A,,Clear,0,2013-01-05 03:41:00
10:01 PM,6.8,3.2,85,30.10,10.0,Calm,Calm,-,N/A,,Clear,0,2013-01-05 04:01:00
10:21 PM,6.8,3.2,85,30.10,10.0,Calm,Calm,-,N/A,,Clear,0,2013-01-05 04:21:00
10:41 PM,6.8,3.2,85,30.10,10.0,Calm,Calm,-,N/A,,Clear,0,2013-01-05 04:41:00
11:02 PM,6.8,3.2,85,30.10,10.0,Calm,Calm,-,N/A,,Clear,0,2013-01-05 05:02:00
11:21 PM,5.0,1.4,85,30.10,10.0,Calm,Calm,-,N/A,,Clear,0,2013-01-05 05:21:00
11:41 PM,6.8,3.2,85,30.10,10.0,Calm,Calm,-,N/A,,Clear,0,2013-01-05 05:41:00